IGO753 VAAH-VAPO

Flight info

Callsign IGO753
Flight time 0h 49m
Altitude 37000
Route QQZ1A QQZ W77 SG J69 SRD J40 PPN
Aircraft A20N/M-SDE2E3FGHIRWXY/LB1

Departure

Time 2026-04-24 04:27
Airport Sardar Vallabh Patel International Airport (VAAH)

Arrival

Time 2026-04-24 05:17
Airport Pune International Airport (VAPO)
Time Latitude Longitude Altitude Speed Heading
2026-04-24 04:05 23.07125 72.61906 193 ft 0 kts 47°
2026-04-24 04:16 23.07113 72.61892 205 ft 3 kts 47°
2026-04-24 04:16 23.07100 72.61877 202 ft 3 kts 47°
2026-04-24 04:16 23.07087 72.61863 207 ft 3 kts 52°
2026-04-24 04:17 23.07080 72.61844 207 ft 3 kts 93°
2026-04-24 04:17 23.07085 72.61825 206 ft 3 kts 133°
2026-04-24 04:17 23.07101 72.61814 205 ft 3 kts 173°
2026-04-24 04:17 23.07116 72.61813 204 ft 3 kts 161°
2026-04-24 04:18 23.07127 72.61807 198 ft 0 kts 133°
2026-04-24 04:19 23.07116 72.61820 202 ft 11 kts 134°
2026-04-24 04:20 23.07006 72.61939 194 ft 13 kts 135°
2026-04-24 04:20 23.06972 72.61993 199 ft 13 kts 107°
2026-04-24 04:20 23.06962 72.62088 195 ft 12 kts 117°
2026-04-24 04:20 23.06885 72.62182 193 ft 14 kts 134°
2026-04-24 04:21 23.06843 72.62239 196 ft 11 kts 97°
2026-04-24 04:21 23.06885 72.62304 206 ft 11 kts 45°
2026-04-24 04:21 23.06981 72.62406 200 ft 19 kts 45°
2026-04-24 04:21 23.07087 72.62520 199 ft 24 kts 45°
2026-04-24 04:22 23.07170 72.62609 204 ft 26 kts 43°
2026-04-24 04:22 23.07300 72.62746 197 ft 26 kts 44°
2026-04-24 04:22 23.07429 72.62883 201 ft 26 kts 45°
2026-04-24 04:22 23.07558 72.63021 208 ft 26 kts 44°
2026-04-24 04:23 23.07659 72.63137 202 ft 13 kts 63°
2026-04-24 04:23 23.07682 72.63218 201 ft 7 kts 74°
2026-04-24 04:23 23.07695 72.63268 203 ft 7 kts 75°
2026-04-24 04:23 23.07707 72.63317 196 ft 7 kts 75°
2026-04-24 04:24 23.07724 72.63386 208 ft 14 kts 75°
2026-04-24 04:24 23.07780 72.63512 208 ft 22 kts 44°
2026-04-24 04:24 23.07906 72.63645 206 ft 28 kts 45°
2026-04-24 04:24 23.08051 72.63800 209 ft 32 kts 44°
2026-04-24 04:25 23.08217 72.63977 207 ft 35 kts 44°
2026-04-24 04:25 23.08391 72.64162 204 ft 35 kts 44°
2026-04-24 04:25 23.08562 72.64344 208 ft 31 kts 45°
2026-04-24 04:25 23.08618 72.64419 212 ft 7 kts 25°
2026-04-24 04:26 23.08632 72.64407 209 ft 1 kts 246°
2026-04-24 04:26 23.08609 72.64389 211 ft 8 kts 218°
2026-04-24 04:26 23.08598 72.64378 201 ft 0 kts 225°
2026-04-24 04:26 23.08543 72.64318 208 ft 39 kts 225°
2026-04-24 04:27 23.08172 72.63926 201 ft 108 kts 225°
2026-04-24 04:27 23.07494 72.63204 204 ft 162 kts 224°
2026-04-24 04:27 23.06702 72.62331 700 ft 161 kts 227°
2026-04-24 04:27 23.05783 72.61558 1111 ft 174 kts 198°
2026-04-24 04:28 23.04614 72.61744 1791 ft 173 kts 153°
2026-04-24 04:28 23.03534 72.62504 2236 ft 203 kts 145°
2026-04-24 04:28 23.02291 72.63460 2521 ft 236 kts 146°
2026-04-24 04:28 23.00837 72.64518 2806 ft 266 kts 148°
2026-04-24 04:29 22.99232 72.65631 2972 ft 277 kts 149°
2026-04-24 04:29 22.97582 72.66735 3001 ft 278 kts 150°
2026-04-24 04:29 22.95927 72.67812 3216 ft 282 kts 150°
2026-04-24 04:29 22.94390 72.69164 3995 ft 284 kts 138°
2026-04-24 04:30 22.92967 72.70668 4859 ft 285 kts 137°
2026-04-24 04:30 22.91578 72.72183 5674 ft 287 kts 137°
2026-04-24 04:30 22.90166 72.73724 6566 ft 286 kts 137°
2026-04-24 04:30 22.88764 72.75245 7376 ft 288 kts 137°
2026-04-24 04:31 22.87302 72.76751 8180 ft 291 kts 141°
2026-04-24 04:31 22.85724 72.78166 9018 ft 293 kts 143°
2026-04-24 04:31 22.84111 72.79546 9840 ft 297 kts 143°
2026-04-24 04:31 22.82467 72.80937 10365 ft 311 kts 143°
2026-04-24 04:32 22.80708 72.82428 10644 ft 332 kts 143°
2026-04-24 04:32 22.78845 72.84015 11093 ft 344 kts 143°
2026-04-24 04:32 22.76966 72.85621 11704 ft 350 kts 143°
2026-04-24 04:32 22.75032 72.87273 12380 ft 354 kts 143°
2026-04-24 04:33 22.73089 72.88930 13055 ft 358 kts 142°
2026-04-24 04:33 22.71109 72.90616 13735 ft 362 kts 142°
2026-04-24 04:33 22.69143 72.92288 14347 ft 365 kts 142°
2026-04-24 04:33 22.67124 72.94005 14990 ft 369 kts 142°
2026-04-24 04:34 22.65109 72.95717 15647 ft 372 kts 142°
2026-04-24 04:34 22.63047 72.97469 16313 ft 375 kts 142°
2026-04-24 04:34 22.61005 72.99204 16960 ft 379 kts 142°
2026-04-24 04:34 22.58908 73.00984 17600 ft 382 kts 141°
2026-04-24 04:35 22.56812 73.02762 18220 ft 386 kts 141°
2026-04-24 04:35 22.54681 73.04570 18757 ft 389 kts 141°
2026-04-24 04:35 22.52560 73.06369 19314 ft 391 kts 141°
2026-04-24 04:35 22.50560 73.08065 19845 ft 394 kts 141°
2026-04-24 04:36 22.48357 73.09934 20421 ft 396 kts 141°
2026-04-24 04:36 22.46192 73.11771 21018 ft 399 kts 141°
2026-04-24 04:36 22.44005 73.13625 21619 ft 401 kts 141°
2026-04-24 04:36 22.41806 73.15489 22218 ft 404 kts 141°
2026-04-24 04:37 22.39564 73.17389 22806 ft 407 kts 141°
2026-04-24 04:37 22.37349 73.19264 23380 ft 409 kts 141°
2026-04-24 04:37 22.35048 73.21138 23836 ft 413 kts 145°
2026-04-24 04:37 22.32557 73.22670 24282 ft 417 kts 155°
2026-04-24 04:38 22.29833 73.23725 24720 ft 420 kts 162°
2026-04-24 04:38 22.27013 73.24568 25159 ft 423 kts 165°
2026-04-24 04:38 22.24144 73.25326 25609 ft 425 kts 166°
2026-04-24 04:38 22.21239 73.26068 26054 ft 428 kts 166°
2026-04-24 04:39 22.18350 73.26816 26479 ft 430 kts 165°
2026-04-24 04:39 22.15442 73.27594 26902 ft 433 kts 165°
2026-04-24 04:39 22.12526 73.28400 27315 ft 435 kts 164°
2026-04-24 04:39 22.09556 73.29243 27726 ft 438 kts 164°
2026-04-24 04:40 22.06611 73.30094 28109 ft 440 kts 164°
2026-04-24 04:40 22.03672 73.30952 28484 ft 443 kts 163°
2026-04-24 04:40 22.00664 73.31834 28854 ft 445 kts 163°
2026-04-24 04:40 21.97675 73.32712 29224 ft 448 kts 163°
2026-04-24 04:41 21.94666 73.33595 29590 ft 450 kts 163°
2026-04-24 04:41 21.91646 73.34481 29938 ft 452 kts 163°
2026-04-24 04:41 21.88568 73.35383 30231 ft 455 kts 163°
2026-04-24 04:41 21.85514 73.36276 30539 ft 457 kts 163°
2026-04-24 04:42 21.82458 73.37170 30912 ft 457 kts 163°
2026-04-24 04:42 21.79420 73.38058 31346 ft 455 kts 164°
2026-04-24 04:42 21.76375 73.38950 31789 ft 454 kts 164°
2026-04-24 04:42 21.73315 73.39848 32184 ft 453 kts 164°
2026-04-24 04:43 21.70250 73.40748 32583 ft 453 kts 164°
2026-04-24 04:43 21.67224 73.41637 32950 ft 452 kts 164°
2026-04-24 04:43 21.64209 73.42522 33318 ft 452 kts 164°
2026-04-24 04:43 21.61186 73.43409 33685 ft 452 kts 164°
2026-04-24 04:44 21.58169 73.44294 34010 ft 451 kts 164°
2026-04-24 04:44 21.55124 73.45187 34312 ft 451 kts 165°
2026-04-24 04:44 21.52118 73.46070 34642 ft 450 kts 165°
2026-04-24 04:44 21.49076 73.46964 34974 ft 448 kts 165°
2026-04-24 04:45 21.46082 73.47845 35279 ft 447 kts 166°
2026-04-24 04:45 21.43114 73.48718 35573 ft 446 kts 166°
2026-04-24 04:45 21.40097 73.49604 35861 ft 446 kts 166°
2026-04-24 04:45 21.37130 73.50475 36139 ft 445 kts 166°
2026-04-24 04:46 21.34117 73.51358 36404 ft 445 kts 167°
2026-04-24 04:46 21.31187 73.52216 36669 ft 444 kts 167°
2026-04-24 04:46 21.28179 73.53096 36883 ft 445 kts 167°
2026-04-24 04:46 21.25176 73.53973 36919 ft 443 kts 167°
2026-04-24 04:47 21.19240 73.55703 36919 ft 441 kts 167°
2026-04-24 04:47 21.13348 73.57523 36920 ft 441 kts 165°
2026-04-24 04:48 21.07529 73.59540 36924 ft 442 kts 164°
2026-04-24 04:48 21.01698 73.61619 36929 ft 442 kts 164°
2026-04-24 04:49 20.95862 73.63696 36935 ft 442 kts 165°
2026-04-24 04:49 20.90039 73.65757 36943 ft 442 kts 165°
2026-04-24 04:50 20.84201 73.67811 36946 ft 441 kts 166°
2026-04-24 04:50 20.78407 73.69841 36954 ft 441 kts 166°
2026-04-24 04:51 20.72550 73.71891 36957 ft 440 kts 166°
2026-04-24 04:51 20.66748 73.73920 36955 ft 440 kts 166°
2026-04-24 04:52 20.60933 73.75952 36963 ft 439 kts 166°
2026-04-24 04:52 20.55116 73.77984 36967 ft 439 kts 166°
2026-04-24 04:53 20.49345 73.79997 36967 ft 439 kts 166°
2026-04-24 04:53 20.43541 73.82021 36972 ft 439 kts 166°
2026-04-24 04:54 20.37722 73.84048 36982 ft 438 kts 166°
2026-04-24 04:54 20.31964 73.86053 36985 ft 438 kts 166°
2026-04-24 04:55 20.26142 73.88078 36991 ft 437 kts 166°
2026-04-24 04:55 20.20369 73.90086 36993 ft 437 kts 166°
2026-04-24 04:56 20.14653 73.92240 36993 ft 441 kts 159°
2026-04-24 04:56 20.09516 73.96005 36996 ft 454 kts 141°
2026-04-24 04:57 20.05084 74.00782 36991 ft 458 kts 138°
2026-04-24 04:57 20.00702 74.05745 36986 ft 458 kts 138°
2026-04-24 04:58 19.98519 74.08180 36839 ft 458 kts 139°
2026-04-24 04:58 19.96280 74.10643 36586 ft 457 kts 139°
2026-04-24 04:58 19.94072 74.13041 36165 ft 454 kts 140°
2026-04-24 04:58 19.91856 74.15427 35439 ft 457 kts 140°
2026-04-24 04:59 19.89604 74.17838 34628 ft 462 kts 140°
2026-04-24 04:59 19.87331 74.20271 33807 ft 466 kts 140°
2026-04-24 04:59 19.85046 74.22719 32862 ft 471 kts 139°
2026-04-24 04:59 19.82736 74.25191 31987 ft 473 kts 138°
2026-04-24 05:00 19.80420 74.27664 31091 ft 476 kts 137°
2026-04-24 05:00 19.78085 74.30151 30365 ft 475 kts 136°
2026-04-24 05:00 19.75744 74.32635 29665 ft 471 kts 136°
2026-04-24 05:00 19.73386 74.35036 28839 ft 468 kts 143°
2026-04-24 05:01 19.70594 74.36763 28230 ft 459 kts 159°
2026-04-24 05:01 19.67576 74.37601 27583 ft 453 kts 174°
2026-04-24 05:01 19.64435 74.37497 26874 ft 449 kts 191°
2026-04-24 05:01 19.61458 74.36605 26284 ft 445 kts 199°
2026-04-24 05:02 19.58566 74.35416 25631 ft 442 kts 202°
2026-04-24 05:02 19.55763 74.34107 24960 ft 441 kts 204°
2026-04-24 05:02 19.52988 74.32757 24271 ft 441 kts 204°
2026-04-24 05:02 19.50174 74.31389 23566 ft 441 kts 203°
2026-04-24 05:03 19.47377 74.30054 22766 ft 440 kts 203°
2026-04-24 05:03 19.44599 74.28759 22058 ft 437 kts 202°
2026-04-24 05:03 19.41826 74.27492 21359 ft 433 kts 202°
2026-04-24 05:03 19.39071 74.26255 20818 ft 426 kts 201°
2026-04-24 05:04 19.36383 74.25062 20432 ft 412 kts 201°
2026-04-24 05:04 19.33779 74.23916 19500 ft 406 kts 201°
2026-04-24 05:04 19.31187 74.22783 18655 ft 399 kts 201°
2026-04-24 05:04 19.28657 74.21679 17944 ft 387 kts 201°
2026-04-24 05:05 19.26199 74.20608 17269 ft 374 kts 201°
2026-04-24 05:05 19.23860 74.19592 16676 ft 361 kts 201°
2026-04-24 05:05 19.21547 74.18596 16075 ft 351 kts 200°
2026-04-24 05:05 19.19231 74.17967 15483 ft 341 kts 188°
2026-04-24 05:06 19.16898 74.17634 14984 ft 332 kts 186°
2026-04-24 05:06 19.14624 74.17355 14420 ft 332 kts 186°
2026-04-24 05:06 19.12326 74.17065 13846 ft 335 kts 186°
2026-04-24 05:06 19.09986 74.16753 13237 ft 337 kts 187°
2026-04-24 05:07 19.07652 74.16429 12672 ft 337 kts 187°
2026-04-24 05:07 19.05346 74.16099 12102 ft 336 kts 187°
2026-04-24 05:07 19.03046 74.15763 11546 ft 334 kts 187°
2026-04-24 05:07 19.00759 74.15425 10979 ft 334 kts 187°
2026-04-24 05:08 18.98475 74.15082 10760 ft 321 kts 187°
2026-04-24 05:08 18.96335 74.14756 10656 ft 306 kts 187°
2026-04-24 05:08 18.94274 74.14439 10397 ft 297 kts 187°
2026-04-24 05:08 18.92211 74.14122 9879 ft 299 kts 186°
2026-04-24 05:09 18.90148 74.13807 9406 ft 298 kts 186°
2026-04-24 05:09 18.88117 74.13499 8972 ft 296 kts 186°
2026-04-24 05:09 18.86070 74.13190 8537 ft 294 kts 186°
2026-04-24 05:09 18.84074 74.12890 8115 ft 292 kts 186°
2026-04-24 05:10 18.82048 74.12585 7677 ft 291 kts 186°
2026-04-24 05:10 18.80057 74.12285 7258 ft 290 kts 186°
2026-04-24 05:10 18.78059 74.11985 6833 ft 290 kts 186°
2026-04-24 05:10 18.76062 74.11686 6407 ft 290 kts 186°
2026-04-24 05:11 18.74067 74.11387 5962 ft 289 kts 187°
2026-04-24 05:11 18.72071 74.11090 5544 ft 289 kts 187°
2026-04-24 05:11 18.70117 74.10800 5304 ft 281 kts 186°
2026-04-24 05:11 18.68232 74.10515 5139 ft 265 kts 187°
2026-04-24 05:12 18.66457 74.10243 5004 ft 249 kts 187°
2026-04-24 05:12 18.65332 74.10070 4934 ft 241 kts 186°
2026-04-24 05:12 18.63218 74.09740 4893 ft 220 kts 187°
2026-04-24 05:12 18.61727 74.09507 4712 ft 213 kts 187°
2026-04-24 05:13 18.59324 74.09032 4299 ft 211 kts 200°
2026-04-24 05:13 18.58193 74.08103 4061 ft 207 kts 239°
2026-04-24 05:13 18.57648 74.06720 3839 ft 204 kts 259°
2026-04-24 05:14 18.57427 74.05256 3597 ft 199 kts 272°
2026-04-24 05:14 18.57506 74.03823 3352 ft 192 kts 278°
2026-04-24 05:14 18.57592 74.02494 3124 ft 175 kts 277°
2026-04-24 05:14 18.57656 74.01289 3078 ft 151 kts 279°
2026-04-24 05:15 18.57717 74.00208 3075 ft 152 kts 278°
2026-04-24 05:15 18.57783 73.99125 3021 ft 144 kts 278°
2026-04-24 05:15 18.57848 73.98089 2858 ft 139 kts 278°
2026-04-24 05:15 18.57913 73.97067 2692 ft 141 kts 277°
2026-04-24 05:16 18.57975 73.96041 2515 ft 145 kts 277°
2026-04-24 05:16 18.58027 73.94968 2383 ft 148 kts 277°
2026-04-24 05:16 18.58082 73.93896 2247 ft 143 kts 277°
2026-04-24 05:16 18.58179 73.92849 2003 ft 142 kts 275°
2026-04-24 05:17 18.58225 73.91888 1930 ft 110 kts 272°
2026-04-24 05:17 18.58263 73.91403 1929 ft 27 kts 274°
2026-04-24 05:17 18.58271 73.91204 1927 ft 27 kts 259°
2026-04-24 05:17 18.58203 73.91046 1927 ft 8 kts 242°
2026-04-24 05:18 18.58175 73.90990 1926 ft 9 kts 242°
2026-04-24 05:18 18.58170 73.90979 1926 ft 0 kts 242°
2026-04-24 05:22 18.58162 73.90963 1926 ft 9 kts 242°
2026-04-24 05:22 18.58103 73.90925 1926 ft 11 kts 192°
2026-04-24 05:22 18.58028 73.90921 1926 ft 11 kts 185°
2026-04-24 05:22 18.57997 73.90916 1926 ft 0 kts 189°
2026-04-24 05:23 18.57995 73.90916 1926 ft 3 kts 189°
2026-04-24 05:23 18.57992 73.90915 1926 ft 0 kts 189°